Location: Czu?�w
(50.1404°N, 18.9919°E)
Time: 11:04:33
(UTC+00:00)

Cosmos 1777 Rocket - Pass Details

Date: 27 October 2020
Orbit: 759 x 775 km, 74.0° (Epoch: 24 November)

Event Time Altitude Azimuth Distance (km) Brightness Sun altitude
Rises 18:04:04 0° 337° (NNW) 3,231 7.7 -25.4°
Reaches altitude 10° 18:06:28 10° 340° (NNW) 2,301 6.8 -25.8°
Enters shadow 18:10:53 59° 14° (NNE) 877 4.2 -26.5°
